Anita, PA

2:47 PM EST on February 06, 2016 (GMT -0500)
Du Bois-Jefferson County

Weather History for KDUJ - March, 2014

Change the Weather History Date:

Sunday, March 30, 2014

  Actual Average Record
Temperature  
Mean Temperature 35 °F 40 °F  
Max Temperature 40 °F 50 °F 79 °F (1977)
Min Temperature 30 °F 30 °F 10 °F (1970)
Degree Days  
Heating Degree Days 30 25  
Month to date heating degree days 993 909  
Since 1 July heating degree days 6076 5932  
Cooling Degree Days 0 0  
Month to date cooling degree days 0 0  
Year to date cooling degree days 0 0  
Moisture  
Dew Point 28 °F    
Average Humidity 83    
Maximum Humidity 96    
Minimum Humidity 69    
Precipitation  
Precipitation 0.08 in 0.11 in 1.35 in (1989)
Month to date precipitation 2.04 3.19  
Sea Level Pressure  
Sea Level Pressure 29.84 in    
Wind  
Wind Speed 15 mph (NNW)    
Max Wind Speed 25 mph    
Max Gust Speed 34 mph    
Visibility 7 miles    
Events Snow    
T = Trace of Precipitation, MM = Missing Value Source: NWS Daily Summary

Daily Weather History Graph

Daily Weather History Graph

Search for Another Location

Airport or City:

Trip Planner

Search our weather history database for the weather conditions in past years. The results will help you decide how hot, cold, wet, or windy it might be!

Date:

Astronomy

Mar. 30, 2014 Rise Set
Actual Time 7:02 AM EDT 7:38 PM EDT
Civil Twilight 6:34 AM EDT 8:06 PM EDT
Nautical Twilight 6:01 AM EDT 8:39 PM EDT
Astronomical Twilight 5:28 AM EDT 9:12 PM EDT
Moon 6:46 AM EDT (3/30) 7:49 PM EDT (3/30)
Length of Visible Light 13h 31m
Length of Day
12h 36m
Waning Crescent, 0% of the Moon is Illuminated
Mar 30
Waning Crescent
Mar 30
New
Apr 7
First Quarter
Apr 15
Full
Apr 22
Last Quarter

Hourly Weather History & Observations

Time (EDT) Temp. Windchill Dew Point Humidity Pressure Visibility Wind Dir Wind Speed Gust Speed Precip Events Conditions
12:56 AM 34.0 °F 25.5 °F 32.0 °F 92% 29.74 in 6.0 mi North 11.5 mph - 0.01 in   Overcast
1:56 AM 34.0 °F 25.5 °F 30.9 °F 89% 29.76 in 3.0 mi North 11.5 mph 25.3 mph 0.03 in Snow Light Snow
2:07 AM 33.1 °F 22.6 °F 30.9 °F 92% 29.73 in 2.5 mi North 16.1 mph 21.9 mph 0.01 in Snow Light Snow
2:30 AM 33.1 °F 23.4 °F 30.9 °F 92% 29.73 in 1.5 mi North 13.8 mph - 0.03 in Snow Light Snow
2:56 AM 32.0 °F 20.5 °F 30.0 °F 92% 29.76 in 1.2 mi North 18.4 mph 26.5 mph 0.04 in Snow Light Snow
3:06 AM 32.0 °F 21.6 °F 30.0 °F 92% 29.73 in 1.2 mi North 15.0 mph 26.5 mph 0.00 in Snow Light Snow
3:15 AM 32.0 °F 21.2 °F 30.0 °F 92% 29.73 in 2.0 mi North 16.1 mph - 0.00 in Snow Light Snow
3:22 AM 32.0 °F 21.6 °F 30.0 °F 92% 29.74 in 2.5 mi North 15.0 mph 23.0 mph 0.00 in Snow Light Snow
3:29 AM 32.0 °F 22.1 °F 30.0 °F 92% 29.74 in 4.0 mi North 13.8 mph - 0.00 in Snow Light Snow
3:56 AM 32.0 °F 22.1 °F 28.9 °F 88% 29.78 in 8.0 mi North 13.8 mph - 0.00 in   Overcast
4:10 AM 32.0 °F 21.6 °F 28.9 °F 88% 29.75 in 7.0 mi North 15.0 mph 20.7 mph N/A   Overcast
4:34 AM 32.0 °F 22.1 °F 30.0 °F 92% 29.74 in 6.0 mi North 13.8 mph - N/A   Overcast
4:46 AM 32.0 °F 22.1 °F 28.9 °F 88% 29.74 in 4.0 mi North 13.8 mph 24.2 mph N/A   Overcast
4:56 AM 32.0 °F 22.1 °F 28.9 °F 88% 29.77 in 2.5 mi North 13.8 mph 21.9 mph 0.00 in Snow Light Snow
5:09 AM 32.0 °F 22.5 °F 28.9 °F 88% 29.74 in 3.0 mi North 12.7 mph - 0.01 in Snow Light Snow
5:16 AM 32.0 °F 22.5 °F 28.9 °F 88% 29.74 in 5.0 mi North 12.7 mph 20.7 mph 0.01 in   Overcast
5:35 AM 32.0 °F 21.2 °F 28.9 °F 88% 29.74 in 5.0 mi North 16.1 mph - 0.01 in Snow Light Snow
5:56 AM 30.9 °F 19.8 °F 28.0 °F 89% 29.78 in 3.0 mi North 16.1 mph 27.6 mph 0.01 in Snow Light Snow
6:56 AM 30.9 °F 18.4 °F 28.0 °F 89% 29.80 in 10.0 mi NNW 20.7 mph 33.4 mph 0.00 in   Overcast
7:56 AM 30.9 °F 20.2 °F 27.0 °F 85% 29.83 in 10.0 mi North 15.0 mph 25.3 mph N/A   Overcast
8:18 AM 30.9 °F 21.2 °F 28.0 °F 89% 29.80 in 10.0 mi NNW 12.7 mph 24.2 mph N/A   Overcast
8:56 AM 30.0 °F 19.1 °F 27.0 °F 88% 29.87 in 10.0 mi NNW 15.0 mph 27.6 mph N/A   Overcast
9:56 AM 30.0 °F 19.1 °F 27.0 °F 88% 29.88 in 6.0 mi NNW 15.0 mph 20.7 mph N/A   Overcast
10:25 AM 30.0 °F 19.5 °F 26.1 °F 85% 29.85 in 10.0 mi NNW 13.8 mph 29.9 mph N/A   Overcast
10:56 AM 30.9 °F 19.8 °F 25.0 °F 79% 29.90 in 10.0 mi North 16.1 mph 26.5 mph N/A   Overcast
11:32 AM 32.0 °F 21.2 °F 25.0 °F 75% 29.84 in 10.0 mi NNW 16.1 mph 26.5 mph N/A   Overcast
11:56 AM 32.0 °F 20.5 °F 26.1 °F 79% 29.89 in 10.0 mi NW 18.4 mph 25.3 mph N/A   Overcast
12:25 PM 32.0 °F 20.5 °F 26.1 °F 79% 29.85 in 10.0 mi NNW 18.4 mph 26.5 mph N/A   Overcast
12:56 PM 32.0 °F 22.1 °F 26.1 °F 79% 29.90 in 10.0 mi NNW 13.8 mph 24.2 mph N/A   Overcast
1:56 PM 33.1 °F 22.6 °F 27.0 °F 78% 29.88 in 10.0 mi NNW 16.1 mph 27.6 mph N/A   Overcast
2:56 PM 35.1 °F 24.8 °F 28.9 °F 78% 29.87 in 10.0 mi NNW 17.3 mph 26.5 mph N/A   Overcast
3:52 PM 37.4 °F 28.2 °F 30.2 °F 75% 29.84 in 10.0 mi NNW 16.1 mph 24.2 mph N/A   Overcast
3:56 PM 37.0 °F 26.4 °F 30.0 °F 76% 29.89 in 10.0 mi NNW 20.7 mph 27.6 mph N/A   Overcast
4:56 PM 37.9 °F 27.9 °F 30.0 °F 73% 29.90 in 10.0 mi NNW 19.6 mph 32.2 mph N/A   Overcast
5:56 PM 39.0 °F 28.5 °F 30.0 °F 70% 29.93 in 10.0 mi North 23.0 mph 29.9 mph N/A   Overcast
6:56 PM 37.9 °F 29.2 °F 28.9 °F 70% 29.96 in 10.0 mi North 15.0 mph - N/A   Overcast
7:29 PM 37.9 °F 30.0 °F 28.9 °F 70% 29.92 in 10.0 mi NNW 12.7 mph 20.7 mph N/A   Scattered Clouds
7:56 PM 37.0 °F 29.3 °F 28.9 °F 73% 29.98 in 10.0 mi NNW 11.5 mph - N/A   Partly Cloudy
8:56 PM 36.0 °F 29.6 °F 28.9 °F 76% 30.00 in 10.0 mi NNW 8.1 mph - N/A   Clear
9:56 PM 34.0 °F 28.8 °F 26.1 °F 73% 30.02 in 10.0 mi NW 5.8 mph - N/A   Clear
10:56 PM 33.1 °F 25.5 °F 24.1 °F 70% 30.03 in 10.0 mi WNW 9.2 mph - N/A   Clear
11:56 PM 30.9 °F 22.8 °F 24.1 °F 76% 30.05 in 10.0 mi WNW 9.2 mph - N/A   Clear